| time (UTC) | temp C | wind direction | speed KPH | gust KPH | rain 1hr cm | rain 24hr cm | rain mn cm | humidity % | barometer mb |
| 20260507161548 | 8 | 273 | 6.4 | 20.9 | 0.00 | 0.74 | 0.00 | 59 | 1006.7 |
| 20260507160048 | 8 | 271 | 8.0 | 22.5 | 0.00 | 0.74 | 0.00 | 60 | 1006.7 |
| 20260507154540 | 7 | 270 | 8.0 | 19.3 | 0.00 | 0.86 | 0.00 | 65 | 1006.9 |
| 20260507153038 | 7 | 272 | 4.8 | 22.5 | 0.00 | 0.86 | 0.00 | 67 | 1007.1 |
| 20260507151542 | 7 | 269 | 9.7 | 20.9 | 0.00 | 0.86 | 0.00 | 70 | 1006.9 |
| 20260507150043 | 7 | 271 | 9.7 | 22.5 | 0.00 | 0.86 | 0.00 | 71 | 1006.8 |
| 20260507144539 | 7 | 0 | 3.2 | 16.1 | 0.00 | 0.94 | 0.00 | 74 | 1006.8 |
| 20260507143051 | 7 | 47 | 3.2 | 16.1 | 0.00 | 0.94 | 0.00 | 77 | 1006.8 |
| 20260507141549 | 6 | 267 | 6.4 | 16.1 | 0.00 | 0.94 | 0.00 | 86 | 1006.9 |
| 20260507140044 | 5 | 236 | 3.2 | 19.3 | 0.00 | 0.94 | 0.00 | 82 | 1007.1 |
| 20260507134544 | 5 | 0 | 1.6 | 14.5 | 0.00 | 1.02 | 0.00 | 80 | 1007.2 |
| 20260507133108 | 5 | 306 | 1.6 | 11.3 | 0.00 | 1.02 | 0.00 | 79 | 1007.2 |
| 20260507131545 | 5 | 0 | 0.0 | 0.0 | 0.00 | 1.02 | 0.00 | 80 | 1007.2 |
| 20260507130053 | 4 | 0 | 0.0 | 0.0 | 0.00 | 1.02 | 0.00 | 80 | 1007.2 |
| 20260507124537 | 4 | 0 | 0.0 | 0.0 | 0.00 | 1.14 | 0.00 | 80 | 1007.2 |
| 20260507123048 | 4 | 0 | 0.0 | 0.0 | 0.00 | 1.14 | 0.00 | 80 | 1007.2 |
| 20260507121543 | 4 | 0 | 0.0 | 0.0 | 0.00 | 1.14 | 0.00 | 80 | 1007.1 |
| 20260507120041 | 4 | 0 | 0.0 | 3.2 | 0.00 | 1.14 | 0.00 | 80 | 1007.1 |
| 20260507114550 | 4 | 0 | 0.0 | 3.2 | 0.00 | 1.14 | 0.00 | 80 | 1007.1 |
| 20260507113040 | 3 | 0 | 0.0 | 0.0 | 0.00 | 1.14 | 0.00 | 80 | 1007.1 |
| 20260507111538 | 3 | 0 | 0.0 | 0.0 | 0.00 | 1.14 | 0.00 | 80 | 1007.0 |
| 20260507110044 | 3 | 0 | 0.0 | 0.0 | 0.00 | 1.14 | 0.00 | 80 | 1007.1 |
| 20260507104542 | 3 | 0 | 0.0 | 0.0 | 0.00 | 1.17 | 0.00 | 81 | 1007.1 |
| 20260507103045 | 3 | 0 | 0.0 | 0.0 | 0.00 | 1.17 | 0.00 | 81 | 1007.0 |
| 20260507101540 | 3 | 0 | 1.6 | 4.8 | 0.00 | 1.17 | 0.00 | 81 | 1007.0 |
| 20260507100039 | 3 | 0 | 0.0 | 4.8 | 0.00 | 1.17 | 0.00 | 81 | 1006.9 |
| 20260507094544 | 3 | 64 | 3.2 | 4.8 | 0.00 | 1.19 | 0.00 | 82 | 1006.9 |
| 20260507093043 | 3 | 0 | 0.0 | 1.6 | 0.00 | 1.19 | 0.00 | 82 | 1006.8 |
| 20260507091541 | 3 | 0 | 0.0 | 4.8 | 0.00 | 1.19 | 0.00 | 81 | 1006.2 |
| 20260507090042 | 3 | 0 | 0.0 | 3.2 | 0.00 | 1.19 | 0.00 | 80 | 1006.6 |
| 20260507084540 | 3 | 281 | 0.0 | 6.4 | 0.00 | 1.22 | 0.00 | 81 | 1006.9 |
| 20260507083036 | 3 | 0 | 0.0 | 0.0 | 0.00 | 1.22 | 0.00 | 81 | 1007.0 |
| 20260507081539 | 3 | 0 | 0.0 | 0.0 | 0.00 | 1.22 | 0.00 | 81 | 1006.7 |
| 20260507080041 | 3 | 0 | 0.0 | 0.0 | 0.00 | 1.22 | 0.00 | 81 | 1006.7 |
| 20260507074547 | 3 | 0 | 0.0 | 0.0 | 0.00 | 1.27 | 0.00 | 81 | 1006.7 |
| 20260507073036 | 3 | 0 | 0.0 | 0.0 | 0.00 | 1.27 | 0.00 | 81 | 1006.6 |
| 20260507071543 | 3 | 0 | 0.0 | 0.0 | 0.00 | 1.27 | 0.00 | 81 | 1006.7 |
| 20260507070051 | 3 | 0 | 0.0 | 0.0 | 0.00 | 1.27 | 0.00 | 81 | 1006.3 |
| 20260507064547 | 3 | 0 | 0.0 | 0.0 | 0.00 | 1.27 | 0.00 | 81 | 1006.5 |
| 20260507063038 | 3 | 0 | 0.0 | 0.0 | 0.00 | 1.27 | 0.00 | 82 | 1006.5 |
| 20260507061539 | 3 | 0 | 0.0 | 0.0 | 0.00 | 1.27 | 0.00 | 82 | 1006.7 |
| 20260507060036 | 3 | 0 | 0.0 | 0.0 | 0.00 | 1.27 | 0.00 | 82 | 1006.7 |
| 20260507054537 | 3 | 0 | 0.0 | 0.0 | 0.00 | 1.32 | 0.00 | 82 | 1006.7 |
| 20260507053040 | 3 | 0 | 0.0 | 0.0 | 0.00 | 1.32 | 0.00 | 83 | 1006.7 |
| 20260507051541 | 4 | 0 | 0.0 | 0.0 | 0.00 | 1.32 | 0.00 | 82 | 1007.2 |
| 20260507050039 | 5 | 0 | 0.0 | 0.0 | 0.00 | 1.32 | 0.00 | 82 | 1007.2 |
| 20260507044549 | 5 | 0 | 0.0 | 0.0 | 0.00 | 1.45 | 0.00 | 82 | 1007.2 |
| 20260507043036 | 5 | 0 | 0.0 | 0.0 | 0.03 | 1.45 | 0.00 | 81 | 1007.2 |
| 20260507041546 | 5 | 0 | 0.0 | 1.6 | 0.03 | 1.45 | 0.00 | 81 | 1007.4 |
| 20260507040046 | 5 | 0 | 1.6 | 9.7 | 0.03 | 1.45 | 0.00 | 81 | 1007.7 |
| 20260507034542 | 5 | 0 | 0.0 | 4.8 | 0.03 | 1.47 | 1.45 | 81 | 1007.6 |
| 20260507033049 | 5 | 0 | 0.0 | 0.0 | 0.00 | 1.47 | 1.42 | 81 | 1007.6 |
| 20260507031552 | 5 | 0 | 0.0 | 1.6 | 0.00 | 1.47 | 1.42 | 81 | 1007.4 |
| 20260507030051 | 5 | 0 | 0.0 | 3.2 | 0.00 | 1.47 | 1.42 | 81 | 1007.6 |
| 20260507024602 | 5 | 0 | 0.0 | 3.2 | 0.00 | 1.47 | 1.42 | 81 | 1007.4 |
| 20260507023041 | 5 | 0 | 0.0 | 0.0 | 0.00 | 1.47 | 1.42 | 81 | 1007.8 |
| 20260507021550 | 5 | 0 | 0.0 | 1.6 | 0.03 | 1.47 | 1.42 | 81 | 1007.9 |
| 20260507020053 | 5 | 0 | 0.0 | 1.6 | 0.05 | 1.47 | 1.42 | 82 | 1008.0 |
| 20260507014549 | 5 | 0 | 0.0 | 6.4 | 0.08 | 1.47 | 1.42 | 82 | 1007.9 |
| 20260507013040 | 5 | 0 | 0.0 | 4.8 | 0.08 | 1.47 | 1.42 | 82 | 1007.7 |
| 20260507011544 | 5 | 0 | 0.0 | 0.0 | 0.05 | 1.45 | 1.40 | 82 | 1007.6 |
| 20260507010045 | 5 | 0 | 0.0 | 1.6 | 0.05 | 1.42 | 1.37 | 82 | 1007.6 |
| 20260507004539 | 5 | 0 | 0.0 | 3.2 | 0.03 | 1.40 | 1.32 | 82 | 1007.3 |
| 20260507003039 | 5 | 0 | 0.0 | 1.6 | 0.05 | 1.40 | 1.32 | 82 | 1006.9 |
| 20260507001542 | 5 | 0 | 0.0 | 0.0 | 0.05 | 1.40 | 1.32 | 82 | 1006.9 |
| 20260507000042 | 5 | 0 | 0.0 | 3.2 | 0.03 | 1.37 | 1.32 | 83 | 1006.5 |
| 20260506234552 | 5 | 0 | 0.0 | 3.2 | 0.03 | 1.37 | 1.32 | 83 | 1006.5 |
| 20260506233048 | 5 | 0 | 0.0 | 8.0 | 0.00 | 1.32 | 1.30 | 83 | 1006.8 |
| 20260506231541 | 5 | 0 | 0.0 | 4.8 | 0.00 | 1.32 | 1.30 | 83 | 1006.4 |
| 20260506230046 | 5 | 0 | 1.6 | 6.4 | 0.00 | 1.32 | 1.30 | 83 | 1006.2 |
| 20260506224540 | 5 | 333 | 0.0 | 3.2 | 0.00 | 1.32 | 1.30 | 83 | 1006.1 |
| 20260506223041 | 5 | 0 | 0.0 | 4.8 | 0.00 | 1.32 | 1.30 | 83 | 1006.1 |
| 20260506221539 | 5 | 0 | 0.0 | 12.9 | 0.03 | 1.32 | 1.30 | 83 | 1006.0 |
| 20260506220039 | 5 | 281 | 1.6 | 14.5 | 0.05 | 1.32 | 1.30 | 84 | 1006.0 |
| 20260506214538 | 5 | 236 | 0.0 | 6.4 | 0.05 | 1.37 | 1.30 | 83 | 1005.9 |
| 20260506213045 | 5 | 0 | 1.6 | 11.3 | 0.05 | 1.37 | 1.30 | 83 | 1006.0 |
| 20260506211544 | 5 | 261 | 1.6 | 9.7 | 0.03 | 1.32 | 1.27 | 83 | 1005.9 |
| 20260506210041 | 6 | 0 | 1.6 | 11.3 | 0.03 | 1.32 | 1.24 | 83 | 1005.8 |
| 20260506204541 | 6 | 0 | 0.0 | 11.3 | 0.05 | 1.73 | 1.24 | 83 | 1005.7 |
| 20260506203041 | 6 | 0 | 4.8 | 11.3 | 0.05 | 1.73 | 1.24 | 83 | 1005.6 |
| 20260506201540 | 6 | 0 | 0.0 | 14.5 | 0.05 | 1.73 | 1.24 | 82 | 1005.6 |
| 20260506200043 | 6 | 0 | 1.6 | 11.3 | 0.00 | 1.68 | 1.19 | 83 | 1005.5 |
| 20260506194541 | 6 | 263 | 3.2 | 12.9 | 0.03 | 1.70 | 1.19 | 82 | 1005.6 |
| 20260506193042 | 6 | 0 | 1.6 | 11.3 | 0.05 | 1.70 | 1.19 | 82 | 1005.6 |
| 20260506191538 | 6 | 333 | 3.2 | 14.5 | 0.08 | 1.70 | 1.19 | 81 | 1005.8 |
| 20260506190040 | 6 | 0 | 0.0 | 6.4 | 0.13 | 1.70 | 1.19 | 81 | 1006.1 |
| 20260506184550 | 6 | 288 | 1.6 | 9.7 | 0.15 | 1.68 | 1.17 | 82 | 1006.2 |
| 20260506183042 | 6 | 0 | 0.0 | 4.8 | 0.18 | 1.65 | 1.14 | 82 | 1006.3 |
| 20260506181540 | 6 | 0 | 0.0 | 4.8 | 0.20 | 1.63 | 1.12 | 82 | 1006.5 |
| 20260506180045 | 5 | 0 | 0.0 | 6.4 | 0.18 | 1.57 | 1.07 | 83 | 1006.7 |
| 20260506174539 | 5 | 261 | 3.2 | 14.5 | 0.18 | 1.52 | 1.02 | 84 | 1006.9 |
| 20260506173121 | 5 | 295 | 4.8 | 17.7 | 0.18 | 1.47 | 0.97 | 83 | 1006.9 |
| 20260506171543 | 6 | 298 | 3.2 | 16.1 | 0.15 | 1.42 | 0.91 | 84 | 1006.7 |
| 20260506170044 | 6 | 267 | 4.8 | 16.1 | 0.18 | 1.40 | 0.89 | 84 | 1007.0 |
| 20260506164541 | 6 | 287 | 6.4 | 17.7 | 0.15 | 1.32 | 0.84 | 84 | 1006.7 |
| 20260506163040 | 7 | 0 | 0.0 | 3.2 | 0.13 | 1.30 | 0.79 | 81 | 1006.4 |